Flag for Poland Weather past 2 weeks in Gorzów Wielkopolski, Poland

Now
74 °F

Overcast.


Feels Like: 76 °F
Forecast: 68 / 87 °F
Wind: 2 mph from Northeast

Location: Gorzow Wlkp

Current Time: Jul 29, 2014 at 12:00:47 AM

Latest Report: Jul 28, 2014 at 11:00 PM


Visibility: 13 mi

Pressure: 29.84 "Hg

Humidity: 71%

Dew point: 64 °F

Location of Gorzów WielkopolskiLocation

Historic Weather in Gorzów Wielkopolski — Graph

°F

Gorzów Wielkopolski temperature yesterday

Maximum temperature yesterday: 85 °F (at 6:00 PM)
Minimum temperature yesterday: 67 °F (at 6:00 AM)
Average temperature yesterday: 76 °F

Past Weeks' High & Low Weather Summary

 TemperatureHumidityPressure
High91 °F (Jul 20, 4:00 PM)97% (Jul 14, 3:00 AM)30.18 "Hg (Jul 14, 3:00 AM)
Low57 °F (Jul 14, 2:00 AM)26% (Jul 19, 7:00 PM)29.76 "Hg (Jul 13, 10:00 PM)
Average73 °F64%29.99 "Hg
* Reported Jul 13 10:00 PM — Jul 28 10:00 PM, Gorzów Wielkopolski, Weather by CustomWeather, © 2014

Note: Actual official high and low records may vary slightly from our data, if they occured in-between our weather recording intervals... More about our weather records

Advertising

Gorzów Wielkopolski weather history for previous 24 hours

 ConditionsComfort  
Time TempWeatherWind HumidityBarometerVisibility
10:00 PM
Jul 28
76 °FOvercast.1 mph65%29.85 "Hg16 mi
9:00 PM78 °FOvercast.2 mph60%29.83 "Hg16 mi
8:00 PM81 °FOvercast.2 mph58%29.82 "Hg16 mi
7:00 PM83 °FOvercast.5 mph47%29.82 "Hg16 mi
6:00 PM85 °FOvercast.3 mph41%29.83 "Hg16 mi
5:00 PM85 °FOvercast.3 mph46%29.84 "Hg16 mi
4:00 PM83 °FOvercast.3 mph52%29.85 "Hg16 mi
3:00 PM82 °FOvercast.3 mph53%29.86 "Hg16 mi
2:00 PM80 °FThunderstorms. Overcast.3 mph57%29.88 "Hg16 mi
1:00 PM78 °FOvercast.3 mph65%29.90 "Hg12 mi
12:00 PM81 °FSprinkles. Overcast.2 mph53%29.88 "Hg12 mi
11:00 AM80 °FOvercast.2 mph58%29.89 "Hg9 mi
10:00 AM76 °FPartly sunny.2 mph62%29.89 "Hg9 mi
9:00 AM74 °FOvercast.1 mph68%29.90 "Hg9 mi
8:00 AM71 °FOvercast.1 mph75%29.90 "Hg9 mi
7:00 AM69 °FPartly sunny.1 mph79%29.91 "Hg6 mi
6:00 AM67 °FPartly sunny.1 mph82%29.91 "Hg7 mi
5:00 AM68 °FPassing clouds.1 mph78%29.90 "Hg6 mi
4:00 AM67 °FPassing clouds.1 mph82%29.90 "Hg12 mi
3:00 AM67 °FPassing clouds.1 mph82%29.90 "Hg12 mi
2:00 AM69 °FPassing clouds.1 mph74%29.91 "Hg16 mi
1:00 AM69 °FPassing clouds.2 mph75%29.92 "Hg16 mi
12:00 AM71 °FPassing clouds.2 mph71%29.92 "Hg16 mi
Weather by CustomWeather, © 2014

See weather overviewHow to use our weather pages